Regional Weather Roundup
Issued by NWS Cleveland, OH

Home | Current Version | Previous Version | Text Only | Print | Product List | Glossary Off
Versions: 1 2 3 4 5 6 7 8 9 10 11 12 13 14 15 16 17 18 19 20 21 22 23 24 25 26 27 28 29 30 31 32 33 34 35 36 37 38 39 40 41 42 43 44 45 46 47 48 49 50

000
ASUS41 KCLE 051300
RWRCLE
OHIO REGIONAL WEATHER ROUNDUP
NATIONAL WEATHER SERVICE WILMINGTON, OH
900 AM EDT WED AUG 05 2015

NOTE: "FAIR" INDICATES FEW OR NO CLOUDS BELOW 12,000 FEET WITH NO
SIGNIFICANT WEATHER AND/OR OBSTRUCTIONS TO VISIBILITY.

OHZ001>008-015>018-024>027-034-035-043-044-051400-
   NORTHWEST OHIO

CITY           SKY/WX    TMP DP  RH WIND       PRES   REMARKS
DEFIANCE       SUNNY     67  59  75 NW3       30.08R
FINDLAY        SUNNY     67  58  72 CALM      30.07R
TOLEDO EXPRESS SUNNY     65  56  72 CALM      30.07R
TOLEDO EXEC    SUNNY     68  57  68 CALM      30.07R
LIMA           SUNNY     68  60  75 CALM      30.08R
$$

OHZ009>014-019>023-028>033-038-089-051400-
   NORTHEAST OHIO

CITY           SKY/WX    TMP DP  RH WIND       PRES   REMARKS
CLE-HOPKINS    MOSUNNY   72  56  57 N10       30.06R
CLE-LAKEFRONT  MOSUNNY   72  56  57 NW14      30.03R
CUY CO. ARPT   MOSUNNY   72  63  73 NW12      30.04R
LORAIN-ELYRIA  SUNNY     70  56  61 N6        30.06R
ASHTABULA      SUNNY     68  61  78 N6        30.04R
AKRON-CANTON   MOSUNNY   69  59  70 NW8       30.05R
WOOSTER        NOT AVBL
MANSFIELD      SUNNY     68  60  75 NW6       30.08R
YOUNGSTOWN     PTSUNNY   67  60  78 NW6       30.03R
$$

OHZ042-051>053-060>062-070>072-077>081-051400-
  SOUTHWEST OHIO

CITY           SKY/WX    TMP DP  RH WIND       PRES   REMARKS
CINC-COVINGTON MOSUNNY   73  61  65 E5        30.06S
CINC-LUNKEN    SUNNY     69  66  90 CALM      30.06S
HAMILTON       SUNNY     71  64  78 CALM      30.07S
DAYTON         NOT AVBL
WRIGHT-PAT AFB SUNNY     67  63  87 N3        30.07S
DAYTON GENERAL SUNNY     70  60  70 CALM      30.07R
WILMINGTON     SUNNY     70  60  70 NE5       30.07S
$$

OHZ036-037-039>041-045>050-054>059-063>069-073>076-082>088-051400-
  CENTRAL AND SOUTHEAST OHIO

CITY           SKY/WX    TMP DP  RH WIND       PRES   REMARKS
COLUMBUS       SUNNY     68  60  75 N3        30.07R
OSU AIRPORT    SUNNY     70  58  65 NE3       30.08R
BOLTON FIELD   SUNNY     70  61  73 N3        30.08R
RICKENBACK AFB NOT AVBL
NEWARK         SUNNY     69  61  75 CALM      30.07R
MARION         SUNNY     67  58  72 CALM      30.09R
LANCASTER      SUNNY     68  62  81 CALM      30.08R
ZANESVILLE     SUNNY     68  59  73 CALM      30.07R
NEW PHILLY     SUNNY     66  61  84 CALM      30.07S
$$


USA.gov is the U.S. government's official web portal to all federal, state and local government web resources and services.